Location: Abbey Hill
(34.0751°N, 84.0688°W)
Time: 05:01:21
(UTC+00:00)

N. Korean satellite - Visible Passes

Search period start: 23 September 2021 00:00
Search period end: 03 October 2021 00:00
Orbit: 448 x 498 km, 97.3° (Epoch: 22 September)

Date Brightness Start Highest point End Pass type
(mag) Time Alt. Az. Time Alt. Az. Time Alt. Az.
23 Sep 6.6 10:47:33 10° NNE 10:51:06 82° ESE 10:54:42 10° S visible
24 Sep 8.6 10:20:07 10° NE 10:23:19 31° E 10:26:32 10° SSE visible
25 Sep 9.9 09:53:39 10° ENE 09:55:26 13° E 09:57:13 10° SE visible
26 Sep 6.5 10:57:25 10° N 11:00:59 70° WNW 11:04:34 10° SSW visible
27 Sep 7.9 10:29:45 10° NNE 10:33:12 43° E 10:36:39 10° S visible
28 Sep 9.6 10:02:47 10° NE 10:05:19 18° E 10:07:52 10° SE visible
30 Sep 7.1 10:39:24 10° NNE 10:42:59 62° E 10:46:35 10° S visible
01 Oct 9.1 10:12:06 10° NE 10:15:06 24° E 10:18:08 10° SSE visible
02 Oct 10.2 09:46:26 10° E 09:47:08 10° E 09:47:50 10° ESE visible
